owner,sensor,date,latitude,longitude,air_pressure(mBar),qcFlag 
TABS,ioos:station:wmo:42047:1,2016-01-01T00:00:00Z,27.8966,-93.5973,1019.76,11111222 
TABS,ioos:station:wmo:42047:1,2016-01-01T00:30:00Z,27.8966,-93.5973,1019.89,11111222 
TABS,ioos:station:wmo:42047:1,2016-01-01T01:00:00Z,27.8966,-93.5973,1020.82,11111222 
TABS,ioos:station:wmo:42047:1,2016-01-01T01:30:00Z,27.8966,-93.5973,1021.41,11111222 
TABS,ioos:station:wmo:42047:1,2016-01-01T02:00:00Z,27.8966,-93.5973,1021.18,11111222 
TABS,ioos:station:wmo:42047:1,2016-01-01T02:30:00Z,27.8966,-93.5973,1021.83,11111222 
TABS,ioos:station:wmo:42047:1,2016-01-01T03:00:00Z,27.8966,-93.5973,1021.98,11111222 
TABS,ioos:station:wmo:42047:1,2016-01-01T03:30:00Z,27.8966,-93.5973,1021.92,11111222 
TABS,ioos:station:wmo:42047:1,2016-01-01T04:00:00Z,27.8966,-93.5973,1022.43,11111222 
TABS,ioos:station:wmo:42047:1,2016-01-01T04:30:00Z,27.8966,-93.5973,1022.4,11111222 
TABS,ioos:station:wmo:42047:1,2016-01-01T05:00:00Z,27.8966,-93.5973,1022.71,11111222 
TABS,ioos:station:wmo:42047:1,2016-01-01T05:30:00Z,27.8966,-93.5973,1022.28,11111222 
TABS,ioos:station:wmo:42047:1,2016-01-01T06:00:00Z,27.8966,-93.5973,1022.11,11111222 
TABS,ioos:station:wmo:42047:1,2016-01-01T06:30:00Z,27.8966,-93.5973,1022.31,11111222 
TABS,ioos:station:wmo:42047:1,2016-01-01T07:00:00Z,27.8966,-93.5973,1022.06,11111222 
TABS,ioos:station:wmo:42047:1,2016-01-01T07:30:00Z,27.8966,-93.5973,1022.44,11111222 
TABS,ioos:station:wmo:42047:1,2016-01-01T08:00:00Z,27.8966,-93.5973,1022.27,11111222 
TABS,ioos:station:wmo:42047:1,2016-01-01T08:30:00Z,27.8966,-93.5973,1021.88,11111222 
TABS,ioos:station:wmo:42047:1,2016-01-01T09:00:00Z,27.8966,-93.5973,1021.69,11111222 
TABS,ioos:station:wmo:42047:1,2016-01-01T09:30:00Z,27.8966,-93.5973,1022.32,11111222 
TABS,ioos:station:wmo:42047:1,2016-01-01T10:00:00Z,27.8966,-93.5973,1022.22,11111222 
TABS,ioos:station:wmo:42047:1,2016-01-01T10:30:00Z,27.8966,-93.5973,1022.1,11111222 
TABS,ioos:station:wmo:42047:1,2016-01-01T11:00:00Z,27.8966,-93.5973,1022.11,11111222 
TABS,ioos:station:wmo:42047:1,2016-01-01T11:30:00Z,27.8966,-93.5973,1022.98,11111222 
TABS,ioos:station:wmo:42047:1,2016-01-01T12:00:00Z,27.8966,-93.5973,1022.68,11111222 
TABS,ioos:station:wmo:42047:1,2016-01-01T12:30:00Z,27.8966,-93.5973,1023.29,11111222 
TABS,ioos:station:wmo:42047:1,2016-01-01T13:00:00Z,27.8966,-93.5973,1023.16,11111222 
TABS,ioos:station:wmo:42047:1,2016-01-01T13:30:00Z,27.8966,-93.5973,1023.6,11111222 
TABS,ioos:station:wmo:42047:1,2016-01-01T14:00:00Z,27.8966,-93.5973,1024.47,11111222 
TABS,ioos:station:wmo:42047:1,2016-01-01T14:30:00Z,27.8966,-93.5973,1024.63,11111222 
TABS,ioos:station:wmo:42047:1,2016-01-01T15:00:00Z,27.8966,-93.5973,1025.27,11111222 
TABS,ioos:station:wmo:42047:1,2016-01-01T15:30:00Z,27.8966,-93.5973,1025.2,11111222 
TABS,ioos:station:wmo:42047:1,2016-01-01T16:00:00Z,27.8966,-93.5973,1025.45,11111222 
TABS,ioos:station:wmo:42047:1,2016-01-01T16:30:00Z,27.8966,-93.5973,1025.63,11111222 
TABS,ioos:station:wmo:42047:1,2016-01-01T17:00:00Z,27.8966,-93.5973,1025.82,11111222 
TABS,ioos:station:wmo:42047:1,2016-01-01T17:30:00Z,27.8966,-93.5973,1025.47,11111222 
TABS,ioos:station:wmo:42047:1,2016-01-01T18:00:00Z,27.8966,-93.5973,1025.25,11111222 
TABS,ioos:station:wmo:42047:1,2016-01-01T18:30:00Z,27.8966,-93.5973,1024.4,11111222 
TABS,ioos:station:wmo:42047:1,2016-01-01T19:00:00Z,27.8966,-93.5973,1024.55,11111222 
TABS,ioos:station:wmo:42047:1,2016-01-01T19:30:00Z,27.8966,-93.5973,1024.77,11111222 
TABS,ioos:station:wmo:42047:1,2016-01-01T20:00:00Z,27.8966,-93.5973,1024.52,11111222 
TABS,ioos:station:wmo:42047:1,2016-01-01T20:30:00Z,27.8966,-93.5973,1024.17,11111222 
TABS,ioos:station:wmo:42047:1,2016-01-01T21:00:00Z,27.8966,-93.5973,1023.37,11111222 
TABS,ioos:station:wmo:42047:1,2016-01-01T21:30:00Z,27.8966,-93.5973,1024.0,11111222 
TABS,ioos:station:wmo:42047:1,2016-01-01T22:00:00Z,27.8966,-93.5973,1023.79,11111222 
TABS,ioos:station:wmo:42047:1,2016-01-01T22:30:00Z,27.8966,-93.5973,1024.6,11111222 
TABS,ioos:station:wmo:42047:1,2016-01-01T23:00:00Z,27.8966,-93.5973,1024.56,11111222 
TABS,ioos:station:wmo:42047:1,2016-01-01T23:30:00Z,27.8966,-93.5973,1024.76,11111222 
TABS,ioos:station:wmo:42047:1,2016-01-02T00:00:00Z,27.8966,-93.5973,1024.46,11111222 
TABS,ioos:station:wmo:42047:1,2016-01-02T00:30:00Z,27.8966,-93.5973,1024.83,11111222 
TABS,ioos:station:wmo:42047:1,2016-01-02T01:00:00Z,27.8966,-93.5973,1025.85,11111222 
TABS,ioos:station:wmo:42047:1,2016-01-02T01:30:00Z,27.8966,-93.5973,1026.17,11111222 
TABS,ioos:station:wmo:42047:1,2016-01-02T02:00:00Z,27.8966,-93.5973,1026.64,11111222 
TABS,ioos:station:wmo:42047:1,2016-01-02T02:30:00Z,27.8966,-93.5973,1026.74,11111222 
TABS,ioos:station:wmo:42047:1,2016-01-02T03:00:00Z,27.8966,-93.5973,1027.0,11111222 
TABS,ioos:station:wmo:42047:1,2016-01-02T03:30:00Z,27.8966,-93.5973,1027.1,11111222 
TABS,ioos:station:wmo:42047:1,2016-01-02T04:00:00Z,27.8966,-93.5973,1027.46,11111222 
TABS,ioos:station:wmo:42047:1,2016-01-02T04:30:00Z,27.8966,-93.5973,1026.89,11111222 
TABS,ioos:station:wmo:42047:1,2016-01-02T05:00:00Z,27.8966,-93.5973,1027.53,11111222 
TABS,ioos:station:wmo:42047:1,2016-01-02T05:30:00Z,27.8966,-93.5973,1026.59,11111222 
TABS,ioos:station:wmo:42047:1,2016-01-02T06:00:00Z,27.8966,-93.5973,1026.28,11111222 
TABS,ioos:station:wmo:42047:1,2016-01-02T06:30:00Z,27.8966,-93.5973,1026.5,11111222 
TABS,ioos:station:wmo:42047:1,2016-01-02T07:00:00Z,27.8966,-93.5973,1026.42,11111222 
TABS,ioos:station:wmo:42047:1,2016-01-02T07:30:00Z,27.8966,-93.5973,1026.37,11111222 
TABS,ioos:station:wmo:42047:1,2016-01-02T08:00:00Z,27.8966,-93.5973,1026.54,11111222 
TABS,ioos:station:wmo:42047:1,2016-01-02T08:30:00Z,27.8966,-93.5973,1025.74,11111222 
TABS,ioos:station:wmo:42047:1,2016-01-02T09:00:00Z,27.8966,-93.5973,1025.01,11111222 
TABS,ioos:station:wmo:42047:1,2016-01-02T09:30:00Z,27.8966,-93.5973,1025.05,11111222 
TABS,ioos:station:wmo:42047:1,2016-01-02T10:00:00Z,27.8966,-93.5973,1025.11,11111222 
TABS,ioos:station:wmo:42047:1,2016-01-02T10:30:00Z,27.8966,-93.5973,1025.16,11111222 
TABS,ioos:station:wmo:42047:1,2016-01-02T11:00:00Z,27.8966,-93.5973,1025.4,11111222 
TABS,ioos:station:wmo:42047:1,2016-01-02T11:30:00Z,27.8966,-93.5973,1024.98,11111222 
TABS,ioos:station:wmo:42047:1,2016-01-02T12:00:00Z,27.8966,-93.5973,1024.8,11111222 
TABS,ioos:station:wmo:42047:1,2016-01-02T12:30:00Z,27.8966,-93.5973,1025.32,11111222 
TABS,ioos:station:wmo:42047:1,2016-01-02T13:00:00Z,27.8966,-93.5973,1025.86,11111222 
TABS,ioos:station:wmo:42047:1,2016-01-02T13:30:00Z,27.8966,-93.5973,1025.72,11111222 
TABS,ioos:station:wmo:42047:1,2016-01-02T14:00:00Z,27.8966,-93.5973,1026.24,11111222 
TABS,ioos:station:wmo:42047:1,2016-01-02T14:30:00Z,27.8966,-93.5973,1026.59,11111222 
TABS,ioos:station:wmo:42047:1,2016-01-02T15:00:00Z,27.8966,-93.5973,1027.6,11111222 
TABS,ioos:station:wmo:42047:1,2016-01-02T15:30:00Z,27.8966,-93.5973,1026.72,11111222 
TABS,ioos:station:wmo:42047:1,2016-01-02T16:00:00Z,27.8966,-93.5973,1026.15,11111222 
TABS,ioos:station:wmo:42047:1,2016-01-02T16:30:00Z,27.8966,-93.5973,1025.77,11111222 
TABS,ioos:station:wmo:42047:1,2016-01-02T17:00:00Z,27.8966,-93.5973,1026.18,11111222 
TABS,ioos:station:wmo:42047:1,2016-01-02T17:30:00Z,27.8966,-93.5973,1025.14,11111222 
TABS,ioos:station:wmo:42047:1,2016-01-02T18:00:00Z,27.8966,-93.5973,1025.05,11111222 
TABS,ioos:station:wmo:42047:1,2016-01-02T18:30:00Z,27.8966,-93.5973,1026.07,11111222 
TABS,ioos:station:wmo:42047:1,2016-01-02T19:00:00Z,27.8966,-93.5973,1025.06,11111222 
TABS,ioos:station:wmo:42047:1,2016-01-02T19:30:00Z,27.8966,-93.5973,1024.82,11111222 
TABS,ioos:station:wmo:42047:1,2016-01-02T20:00:00Z,27.8966,-93.5973,1024.76,11111222 
TABS,ioos:station:wmo:42047:1,2016-01-02T20:30:00Z,27.8966,-93.5973,1025.47,11111222 
TABS,ioos:station:wmo:42047:1,2016-01-02T21:00:00Z,27.8966,-93.5973,1023.67,11111222 
TABS,ioos:station:wmo:42047:1,2016-01-02T21:30:00Z,27.8966,-93.5973,1023.26,11111222 
TABS,ioos:station:wmo:42047:1,2016-01-02T22:00:00Z,27.8966,-93.5973,1023.4,11111222 
TABS,ioos:station:wmo:42047:1,2016-01-02T22:30:00Z,27.8966,-93.5973,1022.73,11111222 
TABS,ioos:station:wmo:42047:1,2016-01-02T23:00:00Z,27.8966,-93.5973,1023.56,11111222 
TABS,ioos:station:wmo:42047:1,2016-01-02T23:30:00Z,27.8966,-93.5973,1023.23,11111222 
TABS,ioos:station:wmo:42047:1,2016-01-03T00:00:00Z,27.8966,-93.5973,1023.26,11111222 
TABS,ioos:station:wmo:42047:1,2016-01-03T00:30:00Z,27.8966,-93.5973,1023.75,11111222 
TABS,ioos:station:wmo:42047:1,2016-01-03T01:00:00Z,27.8966,-93.5973,1024.0,11111222 
TABS,ioos:station:wmo:42047:1,2016-01-03T01:30:00Z,27.8966,-93.5973,1023.91,11111222 
TABS,ioos:station:wmo:42047:1,2016-01-03T02:00:00Z,27.8966,-93.5973,1023.5,11111222 
TABS,ioos:station:wmo:42047:1,2016-01-03T02:30:00Z,27.8966,-93.5973,1023.86,11111222 
TABS,ioos:station:wmo:42047:1,2016-01-03T03:00:00Z,27.8966,-93.5973,1023.75,11111222 
TABS,ioos:station:wmo:42047:1,2016-01-03T03:30:00Z,27.8966,-93.5973,1023.68,11111222 
TABS,ioos:station:wmo:42047:1,2016-01-03T04:00:00Z,27.8966,-93.5973,1023.16,11111222 
TABS,ioos:station:wmo:42047:1,2016-01-03T04:30:00Z,27.8966,-93.5973,1023.13,11111222 
TABS,ioos:station:wmo:42047:1,2016-01-03T05:00:00Z,27.8966,-93.5973,1023.53,11111222 
TABS,ioos:station:wmo:42047:1,2016-01-03T05:30:00Z,27.8966,-93.5973,1022.93,11111222 
TABS,ioos:station:wmo:42047:1,2016-01-03T06:00:00Z,27.8966,-93.5973,1023.34,11111222 
TABS,ioos:station:wmo:42047:1,2016-01-03T06:30:00Z,27.8966,-93.5973,1022.55,11111222 
TABS,ioos:station:wmo:42047:1,2016-01-03T07:00:00Z,27.8966,-93.5973,1022.19,11111222 
TABS,ioos:station:wmo:42047:1,2016-01-03T07:30:00Z,27.8966,-93.5973,1022.33,11111222 
TABS,ioos:station:wmo:42047:1,2016-01-03T08:00:00Z,27.8966,-93.5973,1022.14,11111222 
TABS,ioos:station:wmo:42047:1,2016-01-03T08:30:00Z,27.8966,-93.5973,1022.13,11111222 
TABS,ioos:station:wmo:42047:1,2016-01-03T09:00:00Z,27.8966,-93.5973,1022.69,11111222 
TABS,ioos:station:wmo:42047:1,2016-01-03T09:30:00Z,27.8966,-93.5973,1022.61,11111222 
TABS,ioos:station:wmo:42047:1,2016-01-03T10:00:00Z,27.8966,-93.5973,1022.84,11111222 
TABS,ioos:station:wmo:42047:1,2016-01-03T10:30:00Z,27.8966,-93.5973,1022.39,11111222 
TABS,ioos:station:wmo:42047:1,2016-01-03T11:00:00Z,27.8966,-93.5973,1022.41,11111222 
TABS,ioos:station:wmo:42047:1,2016-01-03T11:30:00Z,27.8966,-93.5973,1022.84,11111222 
TABS,ioos:station:wmo:42047:1,2016-01-03T12:00:00Z,27.8966,-93.5973,1023.3,11111222 
TABS,ioos:station:wmo:42047:1,2016-01-03T12:30:00Z,27.8966,-93.5973,1023.72,11111222 
TABS,ioos:station:wmo:42047:1,2016-01-03T13:00:00Z,27.8966,-93.5973,1024.12,11111222 
TABS,ioos:station:wmo:42047:1,2016-01-03T13:30:00Z,27.8966,-93.5973,1024.25,11111222 
TABS,ioos:station:wmo:42047:1,2016-01-03T14:00:00Z,27.8966,-93.5973,1024.57,11111222 
TABS,ioos:station:wmo:42047:1,2016-01-03T14:30:00Z,27.8966,-93.5973,1024.59,11111222 
TABS,ioos:station:wmo:42047:1,2016-01-03T15:00:00Z,27.8966,-93.5973,1024.64,11111222 
TABS,ioos:station:wmo:42047:1,2016-01-03T15:30:00Z,27.8966,-93.5973,1025.09,11111222 
TABS,ioos:station:wmo:42047:1,2016-01-03T16:00:00Z,27.8966,-93.5973,1024.73,11111222 
TABS,ioos:station:wmo:42047:1,2016-01-03T16:30:00Z,27.8966,-93.5973,1024.57,11111222 
TABS,ioos:station:wmo:42047:1,2016-01-03T17:00:00Z,27.8966,-93.5973,1024.3,11111222 
TABS,ioos:station:wmo:42047:1,2016-01-03T17:30:00Z,27.8966,-93.5973,1023.84,11111222 
TABS,ioos:station:wmo:42047:1,2016-01-03T18:00:00Z,27.8966,-93.5973,1023.15,11111222 
TABS,ioos:station:wmo:42047:1,2016-01-03T18:30:00Z,27.8966,-93.5973,1022.37,11111222 
TABS,ioos:station:wmo:42047:1,2016-01-03T19:00:00Z,27.8966,-93.5973,1021.69,11111222 
TABS,ioos:station:wmo:42047:1,2016-01-03T19:30:00Z,27.8966,-93.5973,1021.48,11111222 
TABS,ioos:station:wmo:42047:1,2016-01-03T20:00:00Z,27.8966,-93.5973,1021.19,11111222 
TABS,ioos:station:wmo:42047:1,2016-01-03T20:30:00Z,27.8966,-93.5973,1021.09,11111222 
TABS,ioos:station:wmo:42047:1,2016-01-03T21:00:00Z,27.8966,-93.5973,1021.24,11111222 
TABS,ioos:station:wmo:42047:1,2016-01-03T21:30:00Z,27.8966,-93.5973,1021.11,11111222 
TABS,ioos:station:wmo:42047:1,2016-01-03T22:00:00Z,27.8966,-93.5973,1021.26,11111222 
TABS,ioos:station:wmo:42047:1,2016-01-03T22:30:00Z,27.8966,-93.5973,1021.62,11111222 
TABS,ioos:station:wmo:42047:1,2016-01-03T23:00:00Z,27.8966,-93.5973,1021.57,11111222 
TABS,ioos:station:wmo:42047:1,2016-01-03T23:30:00Z,27.8966,-93.5973,1021.85,11111222 
TABS,ioos:station:wmo:42047:1,2016-01-04T00:00:00Z,27.8966,-93.5973,1022.07,11111222 
TABS,ioos:station:wmo:42047:1,2016-01-04T00:30:00Z,27.8966,-93.5973,1022.32,11111222 
TABS,ioos:station:wmo:42047:1,2016-01-04T01:00:00Z,27.8966,-93.5973,1022.49,11111222 
TABS,ioos:station:wmo:42047:1,2016-01-04T01:30:00Z,27.8966,-93.5973,1022.21,11111222 
TABS,ioos:station:wmo:42047:1,2016-01-04T02:00:00Z,27.8966,-93.5973,1022.99,11111222 
TABS,ioos:station:wmo:42047:1,2016-01-04T02:30:00Z,27.8966,-93.5973,1023.35,11111222 
TABS,ioos:station:wmo:42047:1,2016-01-04T03:00:00Z,27.8966,-93.5973,1023.32,11111222 
TABS,ioos:station:wmo:42047:1,2016-01-04T03:30:00Z,27.8966,-93.5973,1023.76,11111222 
TABS,ioos:station:wmo:42047:1,2016-01-04T04:00:00Z,27.8966,-93.5973,1023.12,11111222 
TABS,ioos:station:wmo:42047:1,2016-01-04T04:30:00Z,27.8966,-93.5973,1023.29,11111222 
TABS,ioos:station:wmo:42047:1,2016-01-04T05:00:00Z,27.8966,-93.5973,1023.26,11111222 
TABS,ioos:station:wmo:42047:1,2016-01-04T05:30:00Z,27.8966,-93.5973,1023.29,11111222 
TABS,ioos:station:wmo:42047:1,2016-01-04T06:00:00Z,27.8966,-93.5973,1023.11,11111222 
TABS,ioos:station:wmo:42047:1,2016-01-04T06:30:00Z,27.8966,-93.5973,1022.54,11111222 
TABS,ioos:station:wmo:42047:1,2016-01-04T07:00:00Z,27.8966,-93.5973,1022.12,11111222 
TABS,ioos:station:wmo:42047:1,2016-01-04T07:30:00Z,27.8966,-93.5973,1022.12,11111222 
TABS,ioos:station:wmo:42047:1,2016-01-04T08:00:00Z,27.8966,-93.5973,1021.85,11111222 
TABS,ioos:station:wmo:42047:1,2016-01-04T08:30:00Z,27.8966,-93.5973,1021.98,11111222 
TABS,ioos:station:wmo:42047:1,2016-01-04T09:00:00Z,27.8966,-93.5973,1021.99,11111222 
TABS,ioos:station:wmo:42047:1,2016-01-04T09:30:00Z,27.8966,-93.5973,1022.19,11111222 
TABS,ioos:station:wmo:42047:1,2016-01-04T10:00:00Z,27.8966,-93.5973,1022.3,11111222 
TABS,ioos:station:wmo:42047:1,2016-01-04T10:30:00Z,27.8966,-93.5973,1022.55,11111222 
TABS,ioos:station:wmo:42047:1,2016-01-04T11:00:00Z,27.8966,-93.5973,1022.26,11111222 
TABS,ioos:station:wmo:42047:1,2016-01-04T11:30:00Z,27.8966,-93.5973,1022.51,11111222 
TABS,ioos:station:wmo:42047:1,2016-01-04T12:00:00Z,27.8966,-93.5973,1022.81,11111222 
TABS,ioos:station:wmo:42047:1,2016-01-04T12:30:00Z,27.8966,-93.5973,1023.18,11111222 
TABS,ioos:station:wmo:42047:1,2016-01-04T13:00:00Z,27.8966,-93.5973,1023.51,11111222 
TABS,ioos:station:wmo:42047:1,2016-01-04T13:30:00Z,27.8966,-93.5973,1023.92,11111222 
TABS,ioos:station:wmo:42047:1,2016-01-04T14:00:00Z,27.8966,-93.5973,1024.48,11111222 
TABS,ioos:station:wmo:42047:1,2016-01-04T14:30:00Z,27.8966,-93.5973,1024.64,11111222 
TABS,ioos:station:wmo:42047:1,2016-01-04T15:00:00Z,27.8966,-93.5973,1025.16,11111222 
TABS,ioos:station:wmo:42047:1,2016-01-04T15:30:00Z,27.8966,-93.5973,1025.39,11111222 
TABS,ioos:station:wmo:42047:1,2016-01-04T16:00:00Z,27.8966,-93.5973,1025.33,11111222 
TABS,ioos:station:wmo:42047:1,2016-01-04T16:30:00Z,27.8966,-93.5973,1025.08,11111222 
TABS,ioos:station:wmo:42047:1,2016-01-04T17:00:00Z,27.8966,-93.5973,1024.72,11111222 
TABS,ioos:station:wmo:42047:1,2016-01-04T17:30:00Z,27.8966,-93.5973,1024.61,11111222 
TABS,ioos:station:wmo:42047:1,2016-01-04T18:00:00Z,27.8966,-93.5973,1024.16,11111222 
TABS,ioos:station:wmo:42047:1,2016-01-04T18:30:00Z,27.8966,-93.5973,1023.67,11111222 
TABS,ioos:station:wmo:42047:1,2016-01-04T19:00:00Z,27.8966,-93.5973,1023.18,11111222 
TABS,ioos:station:wmo:42047:1,2016-01-04T19:30:00Z,27.8966,-93.5973,1023.27,11111222 
TABS,ioos:station:wmo:42047:1,2016-01-04T20:00:00Z,27.8966,-93.5973,1023.04,11111222 
TABS,ioos:station:wmo:42047:1,2016-01-04T20:30:00Z,27.8966,-93.5973,1023.0,11111222 
TABS,ioos:station:wmo:42047:1,2016-01-04T21:00:00Z,27.8966,-93.5973,1022.87,11111222 
TABS,ioos:station:wmo:42047:1,2016-01-04T21:30:00Z,27.8966,-93.5973,1023.14,11111222 
TABS,ioos:station:wmo:42047:1,2016-01-04T22:00:00Z,27.8966,-93.5973,1023.21,11111222 
TABS,ioos:station:wmo:42047:1,2016-01-04T22:30:00Z,27.8966,-93.5973,1023.12,11111222 
TABS,ioos:station:wmo:42047:1,2016-01-04T23:00:00Z,27.8966,-93.5973,1023.43,11111222 
TABS,ioos:station:wmo:42047:1,2016-01-04T23:30:00Z,27.8966,-93.5973,1023.41,11111222 
TABS,ioos:station:wmo:42047:1,2016-01-05T00:00:00Z,27.8966,-93.5973,1023.57,11111222 
TABS,ioos:station:wmo:42047:1,2016-01-05T00:30:00Z,27.8966,-93.5973,1023.65,11111222 
TABS,ioos:station:wmo:42047:1,2016-01-05T01:00:00Z,27.8966,-93.5973,1023.68,11111222 
TABS,ioos:station:wmo:42047:1,2016-01-05T01:30:00Z,27.8966,-93.5973,1023.92,11111222 
TABS,ioos:station:wmo:42047:1,2016-01-05T02:00:00Z,27.8966,-93.5973,1023.99,11111222 
TABS,ioos:station:wmo:42047:1,2016-01-05T02:30:00Z,27.8966,-93.5973,1024.03,11111222 
TABS,ioos:station:wmo:42047:1,2016-01-05T03:00:00Z,27.8966,-93.5973,1024.53,11111222 
TABS,ioos:station:wmo:42047:1,2016-01-05T03:30:00Z,27.8966,-93.5973,1024.95,11111222 
TABS,ioos:station:wmo:42047:1,2016-01-05T04:00:00Z,27.8966,-93.5973,1024.79,11111222 
TABS,ioos:station:wmo:42047:1,2016-01-05T04:30:00Z,27.8966,-93.5973,1024.7,11111222 
TABS,ioos:station:wmo:42047:1,2016-01-05T05:00:00Z,27.8966,-93.5973,1024.73,11111222 
TABS,ioos:station:wmo:42047:1,2016-01-05T05:30:00Z,27.8966,-93.5973,1024.45,11111222 
TABS,ioos:station:wmo:42047:1,2016-01-05T06:00:00Z,27.8966,-93.5973,1024.57,11111222 
TABS,ioos:station:wmo:42047:1,2016-01-05T06:30:00Z,27.8966,-93.5973,1024.17,11111222 
TABS,ioos:station:wmo:42047:1,2016-01-05T07:00:00Z,27.8966,-93.5973,1023.9,11111222 
TABS,ioos:station:wmo:42047:1,2016-01-05T07:30:00Z,27.8966,-93.5973,1023.76,11111222 
TABS,ioos:station:wmo:42047:1,2016-01-05T08:00:00Z,27.8966,-93.5973,1023.58,11111222 
TABS,ioos:station:wmo:42047:1,2016-01-05T08:30:00Z,27.8966,-93.5973,1023.28,11111222 
TABS,ioos:station:wmo:42047:1,2016-01-05T09:00:00Z,27.8966,-93.5973,1023.38,11111222 
TABS,ioos:station:wmo:42047:1,2016-01-05T09:30:00Z,27.8966,-93.5973,1024.21,11111222 
TABS,ioos:station:wmo:42047:1,2016-01-05T10:00:00Z,27.8966,-93.5973,1024.17,11111222 
TABS,ioos:station:wmo:42047:1,2016-01-05T10:30:00Z,27.8966,-93.5973,1024.22,11111222 
TABS,ioos:station:wmo:42047:1,2016-01-05T11:00:00Z,27.8966,-93.5973,1024.02,11111222 
TABS,ioos:station:wmo:42047:1,2016-01-05T11:30:00Z,27.8966,-93.5973,1023.85,11111222 
TABS,ioos:station:wmo:42047:1,2016-01-05T12:00:00Z,27.8966,-93.5973,1023.57,11111222 
TABS,ioos:station:wmo:42047:1,2016-01-05T12:30:00Z,27.8966,-93.5973,1023.68,11111222 
TABS,ioos:station:wmo:42047:1,2016-01-05T13:00:00Z,27.8966,-93.5973,1023.95,11111222 
TABS,ioos:station:wmo:42047:1,2016-01-05T13:30:00Z,27.8966,-93.5973,1024.51,11111222 
TABS,ioos:station:wmo:42047:1,2016-01-05T14:00:00Z,27.8966,-93.5973,1024.95,11111222 
TABS,ioos:station:wmo:42047:1,2016-01-05T14:30:00Z,27.8966,-93.5973,1025.3,11111222 
TABS,ioos:station:wmo:42047:1,2016-01-05T15:00:00Z,27.8966,-93.5973,1025.65,11111222 
TABS,ioos:station:wmo:42047:1,2016-01-05T15:30:00Z,27.8966,-93.5973,1025.75,11111222 
TABS,ioos:station:wmo:42047:1,2016-01-05T16:00:00Z,27.8966,-93.5973,1025.93,11111222 
TABS,ioos:station:wmo:42047:1,2016-01-05T16:30:00Z,27.8966,-93.5973,1025.72,11111222 
TABS,ioos:station:wmo:42047:1,2016-01-05T17:00:00Z,27.8966,-93.5973,1025.2,11111222 
TABS,ioos:station:wmo:42047:1,2016-01-05T17:30:00Z,27.8966,-93.5973,1024.8,11111222 
TABS,ioos:station:wmo:42047:1,2016-01-05T18:00:00Z,27.8966,-93.5973,1023.95,11111222 
TABS,ioos:station:wmo:42047:1,2016-01-05T18:30:00Z,27.8966,-93.5973,1023.56,11111222 
TABS,ioos:station:wmo:42047:1,2016-01-05T19:00:00Z,27.8966,-93.5973,1022.66,11111222 
TABS,ioos:station:wmo:42047:1,2016-01-05T19:30:00Z,27.8966,-93.5973,1022.34,11111222 
TABS,ioos:station:wmo:42047:1,2016-01-05T20:00:00Z,27.8966,-93.5973,1022.07,11111222 
TABS,ioos:station:wmo:42047:1,2016-01-05T20:30:00Z,27.8966,-93.5973,1022.13,11111222 
TABS,ioos:station:wmo:42047:1,2016-01-05T21:00:00Z,27.8966,-93.5973,1021.74,11111222 
TABS,ioos:station:wmo:42047:1,2016-01-05T21:30:00Z,27.8966,-93.5973,1021.76,11111222 
TABS,ioos:station:wmo:42047:1,2016-01-05T22:00:00Z,27.8966,-93.5973,1021.82,11111222 
TABS,ioos:station:wmo:42047:1,2016-01-05T22:30:00Z,27.8966,-93.5973,1021.99,11111222 
TABS,ioos:station:wmo:42047:1,2016-01-05T23:00:00Z,27.8966,-93.5973,1022.08,11111222 
TABS,ioos:station:wmo:42047:1,2016-01-05T23:30:00Z,27.8966,-93.5973,1022.16,11111222 
TABS,ioos:station:wmo:42047:1,2016-01-06T00:00:00Z,27.8966,-93.5973,1022.27,11111222 
TABS,ioos:station:wmo:42047:1,2016-01-06T00:30:00Z,27.8966,-93.5973,1022.25,11111222 
TABS,ioos:station:wmo:42047:1,2016-01-06T01:00:00Z,27.8966,-93.5973,1022.36,11111222 
TABS,ioos:station:wmo:42047:1,2016-01-06T01:30:00Z,27.8966,-93.5973,1022.36,11111222 
TABS,ioos:station:wmo:42047:1,2016-01-06T02:00:00Z,27.8966,-93.5973,1022.28,11111222 
TABS,ioos:station:wmo:42047:1,2016-01-06T02:30:00Z,27.8966,-93.5973,1022.56,11111222 
TABS,ioos:station:wmo:42047:1,2016-01-06T03:00:00Z,27.8966,-93.5973,1022.56,11111222 
TABS,ioos:station:wmo:42047:1,2016-01-06T03:30:00Z,27.8966,-93.5973,1022.32,11111222 
TABS,ioos:station:wmo:42047:1,2016-01-06T04:00:00Z,27.8966,-93.5973,1022.54,11111222 
TABS,ioos:station:wmo:42047:1,2016-01-06T04:30:00Z,27.8966,-93.5973,1022.62,11111222 
TABS,ioos:station:wmo:42047:1,2016-01-06T05:00:00Z,27.8966,-93.5973,1022.15,11111222 
TABS,ioos:station:wmo:42047:1,2016-01-06T05:30:00Z,27.8966,-93.5973,1021.64,11111222 
TABS,ioos:station:wmo:42047:1,2016-01-06T06:00:00Z,27.8966,-93.5973,1021.31,11111222 
TABS,ioos:station:wmo:42047:1,2016-01-06T06:30:00Z,27.8966,-93.5973,1020.87,11111222 
TABS,ioos:station:wmo:42047:1,2016-01-06T07:00:00Z,27.8966,-93.5973,1020.92,11111222 
TABS,ioos:station:wmo:42047:1,2016-01-06T07:30:00Z,27.8966,-93.5973,1020.79,11111222 
TABS,ioos:station:wmo:42047:1,2016-01-06T08:00:00Z,27.8966,-93.5973,1020.69,11111222 
TABS,ioos:station:wmo:42047:1,2016-01-06T08:30:00Z,27.8966,-93.5973,1020.11,11111222 
TABS,ioos:station:wmo:42047:1,2016-01-06T09:00:00Z,27.8966,-93.5973,1019.71,11111222 
TABS,ioos:station:wmo:42047:1,2016-01-06T09:30:00Z,27.8966,-93.5973,1019.59,11111222 
TABS,ioos:station:wmo:42047:1,2016-01-06T10:00:00Z,27.8966,-93.5973,1019.52,11111222 
TABS,ioos:station:wmo:42047:1,2016-01-06T10:30:00Z,27.8966,-93.5973,1019.29,11111222 
TABS,ioos:station:wmo:42047:1,2016-01-06T11:00:00Z,27.8966,-93.5973,1019.22,11111222 
TABS,ioos:station:wmo:42047:1,2016-01-06T11:30:00Z,27.8966,-93.5973,1019.34,11111222 
TABS,ioos:station:wmo:42047:1,2016-01-06T12:00:00Z,27.8966,-93.5973,1018.98,11111222 
TABS,ioos:station:wmo:42047:1,2016-01-06T12:30:00Z,27.8966,-93.5973,1019.34,11111222 
TABS,ioos:station:wmo:42047:1,2016-01-06T13:00:00Z,27.8966,-93.5973,1019.42,11111222 
TABS,ioos:station:wmo:42047:1,2016-01-06T13:30:00Z,27.8966,-93.5973,1020.06,11111222 
TABS,ioos:station:wmo:42047:1,2016-01-06T14:00:00Z,27.8966,-93.5973,1020.18,11111222 
TABS,ioos:station:wmo:42047:1,2016-01-06T14:30:00Z,27.8966,-93.5973,1020.35,11111222 
TABS,ioos:station:wmo:42047:1,2016-01-06T15:00:00Z,27.8966,-93.5973,1020.6,11111222 
TABS,ioos:station:wmo:42047:1,2016-01-06T15:30:00Z,27.8966,-93.5973,1021.05,11111222 
TABS,ioos:station:wmo:42047:1,2016-01-06T16:00:00Z,27.8966,-93.5973,1020.84,11111222 
TABS,ioos:station:wmo:42047:1,2016-01-06T16:30:00Z,27.8966,-93.5973,1020.79,11111222 
TABS,ioos:station:wmo:42047:1,2016-01-06T17:00:00Z,27.8966,-93.5973,1020.48,11111222 
TABS,ioos:station:wmo:42047:1,2016-01-06T17:30:00Z,27.8966,-93.5973,1019.79,11111222 
TABS,ioos:station:wmo:42047:1,2016-01-06T18:00:00Z,27.8966,-93.5973,1019.11,11111222 
TABS,ioos:station:wmo:42047:1,2016-01-06T18:30:00Z,27.8966,-93.5973,1018.47,11111222 